{"data":{"norad_id":68090,"epoch":"2026-05-25T04:00:03.998880Z","epoch_age_seconds":54451,"freshness":"FRESH","line1":"1 68090U 26042X   26145.16671295  .00001158  00000+0  45395-4 0  9996","line2":"2 68090  53.1594 182.6339 0001232  90.8334   3.3235 15.34395576  5873","mean_motion":15.34395576,"eccentricity":0.0001232,"inclination_deg":53.1594,"raan_deg":182.6339,"arg_perigee_deg":90.8334,"mean_anomaly_deg":3.3235,"bstar":4.5395e-5,"rev_number":587,"period_min":93.848028665067,"perigee_km":461.87359616145,"apogee_km":463.55918243658,"semimajor_km":6840.853389299,"source":"CELESTRAK","updated_at":"2026-05-25T13:38:21.838661Z"}}